Hutchinson, KS

4:15 PM CDT on April 28, 2017 (GMT -0500)
Hutchinson Municipal

Weather History for KHUT - May, 2013

Change the Weather History Date:

Sunday, May 19, 2013

  Actual Average Record
Temperature  
Mean Temperature 72 °F -  
Max Temperature 84 °F 77 °F 99 °F (2006)
Min Temperature 60 °F 51 °F 43 °F (2000)
Cooling Degree Days 7    
Growing Degree Days 22 (Base 50)    
Moisture  
Dew Point 59 °F    
Average Humidity 72    
Maximum Humidity 88    
Minimum Humidity 53    
Precipitation  
Precipitation 0.92 in - - ()
Sea Level Pressure  
Sea Level Pressure 29.64 in    
Wind  
Wind Speed 14 mph (South)    
Max Wind Speed 30 mph    
Max Gust Speed 44 mph    
Visibility 8 miles    
Events Rain , Thunderstorm    
Averages and records for this station are not official NWS values.
T = Trace of Precipitation, MM = Missing Value Source: NWS Daily Summary

Daily Weather History Graph

Daily Weather History Graph

Search for Another Location

Airport or City:

Trip Planner

Search our weather history database for the weather conditions in past years. The results will help you decide how hot, cold, wet, or windy it might be!

Date:

Astronomy

May. 19, 2013 Rise Set
Actual Time 6:17 AM CDT 8:38 PM CDT
Civil Twilight 5:47 AM CDT 9:08 PM CDT
Nautical Twilight 5:10 AM CDT 9:45 PM CDT
Astronomical Twilight 4:30 AM CDT 10:26 PM CDT
Moon 2:49 PM CDT (5/19) 2:35 AM CDT (5/19)
Length of Visible Light 15h 21m
Length of Day
14h 21m
Waxing Gibbous, 65% of the Moon is Illuminated
May 19
Waxing Gibbous
May 24
Full
May 31
Last Quarter
Jun 8
New
Jun 16
First Quarter

Hourly Weather History & Observations

Time (CDT) Temp. Heat Index Dew Point Humidity Pressure Visibility Wind Dir Wind Speed Gust Speed Precip Events Conditions
12:52 AM 68.0 °F - 59.0 °F 73% 29.72 in 10.0 mi WNW 21.9 mph 29.9 mph N/A   Clear
1:07 AM 66.2 °F - 59.0 °F 78% 29.79 in 10.0 mi NNW 9.2 mph 21.9 mph N/A   Clear
1:33 AM 66.2 °F - 59.0 °F 78% 29.79 in 10.0 mi Calm Calm - 0.00 in Rain , Thunderstorm Light Rain
1:52 AM 68.0 °F - 57.9 °F 70% 29.66 in 7.0 mi SSE 29.9 mph 43.7 mph 0.00 in Rain Light Rain
2:02 AM 66.2 °F - 59.0 °F 78% 29.74 in 8.0 mi ESE 12.7 mph 28.8 mph 0.00 in Rain Light Rain
2:28 AM 66.2 °F - 60.8 °F 83% 29.75 in 9.0 mi ESE 9.2 mph - 0.00 in Rain , Thunderstorm Light Thunderstorms and Rain
2:52 AM 66.0 °F - 61.0 °F 84% 29.66 in 10.0 mi East 12.7 mph - 0.00 in Rain Light Rain
3:52 AM 66.0 °F - 61.0 °F 84% 29.70 in 8.0 mi SSE 11.5 mph - 0.01 in Rain , Thunderstorm Light Rain
4:10 AM 66.2 °F - 60.8 °F 83% 29.76 in 6.0 mi SSE 11.5 mph - 0.02 in Rain Rain
4:47 AM 64.4 °F - 60.8 °F 88% 29.77 in 7.0 mi South 12.7 mph - 0.07 in Rain , Thunderstorm Light Rain
4:52 AM 64.9 °F - 60.1 °F 84% 29.70 in 7.0 mi South 13.8 mph - 0.08 in Rain , Thunderstorm Rain
5:23 AM 64.4 °F - 59.0 °F 83% 29.71 in 7.0 mi East 13.8 mph - 0.07 in Rain Rain
5:52 AM 64.9 °F - 55.9 °F 73% 29.58 in 10.0 mi East 19.6 mph 25.3 mph 0.07 in Rain Light Rain
6:52 AM 70.0 °F - 52.0 °F 53% 29.57 in 10.0 mi SSE 13.8 mph - 0.00 in   Scattered Clouds
7:52 AM 68.0 °F - 55.9 °F 65% 29.57 in 10.0 mi South 8.1 mph - N/A   Clear
8:52 AM 70.0 °F - 57.0 °F 63% 29.60 in 10.0 mi SE 19.6 mph - N/A   Clear
9:52 AM 73.9 °F - 57.9 °F 57% 29.60 in 10.0 mi SSE 17.3 mph - N/A   Clear
10:52 AM 77.0 °F - 64.0 °F 64% 29.58 in 10.0 mi SSE 25.3 mph 31.1 mph N/A   Scattered Clouds
11:13 AM 75.2 °F - 64.4 °F 69% 29.64 in 9.0 mi South 25.3 mph 32.2 mph N/A   Overcast
11:52 AM 75.0 °F - 66.0 °F 73% 29.57 in 8.0 mi SSE 21.9 mph 31.1 mph N/A   Overcast
12:52 PM 75.9 °F - 66.0 °F 71% 29.57 in 8.0 mi South 19.6 mph 26.5 mph N/A   Mostly Cloudy
1:52 PM 79.0 °F - 66.0 °F 64% 29.57 in 9.0 mi SW 10.4 mph - N/A   Mostly Cloudy
1:59 PM 80.6 °F 82.7 °F 66.2 °F 61% 29.63 in 9.0 mi SW 10.4 mph - N/A   Scattered Clouds
2:52 PM 82.0 °F 84.1 °F 66.0 °F 58% 29.54 in 9.0 mi SSW 10.4 mph - N/A   Partly Cloudy
4:52 PM 84.0 °F 85.8 °F 64.9 °F 53% 29.47 in 10.0 mi NNW 9.2 mph - N/A   Scattered Clouds
5:52 PM 73.9 °F - 63.0 °F 68% 29.52 in 10.0 mi SE 11.5 mph 19.6 mph N/A   Scattered Clouds
6:17 PM 71.6 °F - 62.6 °F 73% 29.56 in 8.0 mi SE 10.4 mph - 0.00 in Rain , Thunderstorm Light Rain
6:34 PM 69.8 °F - 62.6 °F 78% 29.61 in 1.2 mi Variable 5.8 mph - 0.15 in Rain , Thunderstorm Heavy Thunderstorms and Rain
6:39 PM 69.8 °F - 60.8 °F 73% 29.67 in 0.8 mi WSW 25.3 mph 42.6 mph 0.30 in Rain , Thunderstorm Heavy Thunderstorms and Rain
6:52 PM 63.0 °F - 53.1 °F 70% 29.60 in 1.0 mi SW 17.3 mph 39.1 mph 0.74 in Rain , Thunderstorm Heavy Thunderstorms and Rain
6:57 PM 64.4 °F - 51.8 °F 64% 29.64 in 2.0 mi SSW 13.8 mph 32.2 mph 0.01 in Rain , Thunderstorm Heavy Thunderstorms and Rain
7:05 PM 64.4 °F - 53.6 °F 68% 29.63 in 8.0 mi WNW 12.7 mph 19.6 mph 0.01 in Rain , Thunderstorm Light Thunderstorms and Rain
7:31 PM 64.4 °F - 55.4 °F 73% 29.58 in 10.0 mi Variable 3.5 mph - 0.02 in Rain Light Rain
7:52 PM 62.1 °F - 57.0 °F 84% 29.54 in 10.0 mi SSE 4.6 mph - 0.02 in   Partly Cloudy
8:52 PM 66.0 °F - 54.0 °F 65% 29.61 in 10.0 mi West 8.1 mph - N/A   Partly Cloudy
9:52 PM 64.0 °F - 55.9 °F 75% 29.64 in 10.0 mi WSW 6.9 mph - N/A   Partly Cloudy
10:52 PM 60.1 °F - 55.0 °F 83% 29.65 in 10.0 mi WNW 4.6 mph - N/A   Clear
11:52 PM 60.1 °F - 54.0 °F 80% 29.64 in 10.0 mi NE 3.5 mph - N/A   Clear